Weather History for Immokalee Regional Airport [I, FL

Change the Weather History Date:

Saturday, April 12, 2014

  Actual Average (KFMY) Record (KFMY)
Temperature  
Mean Temperature 74 °F 73 °F  
Max Temperature 87 °F 84 °F 92 °F (1979)
Min Temperature 60 °F 63 °F 48 °F (1973)
Degree Days  
Heating Degree Days 0 0  
Month to date heating degree days 0  
Since 1 July heating degree days 284  
Cooling Degree Days 8 8  
Month to date cooling degree days 92  
Year to date cooling degree days 453  
Growing Degree Days 24 (Base 50)    
Moisture  
Dew Point 63 °F    
Average Humidity 62    
Maximum Humidity 100    
Minimum Humidity 35    
Precipitation  
Precipitation 0.00 in 0.07 in 2.41 in (1997)
Month to date precipitation 0.92  
Year to date precipitation 7.89  
Sea Level Pressure  
Sea Level Pressure 30.14 in    
Wind  
Wind Speed 4 mph (ENE)    
Max Wind Speed 17 mph    
Max Gust Speed 22 mph    
Visibility 7 miles    
Events      
T = Trace of Precipitation, MM = Missing Value Source: NWS Daily Summary

Daily Weather History Graph

Daily Weather History Graph

Search for Another Location

Airport:

Trip Planner

Search our weather history database for the weather conditions in past years. The results will help you decide how hot, cold, wet, or windy it might be!

Date:

Astronomy

Apr. 12, 2014 Rise Set
Actual Time 7:05 AM EDT 7:47 PM EDT
Civil Twilight 6:41 AM EDT 8:11 PM EDT
Nautical Twilight 6:13 AM EDT 8:39 PM EDT
Astronomical Twilight 5:45 AM EDT 9:07 PM EDT
Moon 5:37 PM EDT (4/12) 5:16 AM EDT (4/12)
Length of Visible Light 13h 30m
Length of Day
12h 42m
Waxing Gibbous, 93% of the Moon is Illuminated
Apr 12
Waxing Gibbous
Apr 15
Full
Apr 22
Last Quarter
Apr 29
New
May 6
First Quarter

Hourly Weather History & Observations

Time (EDT) Temp. Heat Index Dew Point Humidity Pressure Visibility Wind Dir Wind Speed Gust Speed Precip Events Conditions
12:15 AM 66.2 °F - - N/A% 30.17 in 9.0 mi Calm Calm - 0.00 in   Scattered Clouds
12:35 AM 66.2 °F - - N/A% 30.16 in 8.0 mi Calm Calm - 0.00 in   Mostly Cloudy
12:55 AM 66.2 °F - - N/A% 30.16 in 8.0 mi Calm Calm - 0.00 in   Mostly Cloudy
1:15 AM 66.2 °F - - N/A% 30.15 in 7.0 mi Calm Calm - 0.00 in   Overcast
1:35 AM 66.2 °F - - N/A% 30.15 in 8.0 mi Calm Calm - 0.00 in   Overcast
1:55 AM 66.2 °F - - N/A% 30.15 in 7.0 mi Calm Calm - 0.00 in   Overcast
2:15 AM 66.2 °F - - N/A% 30.14 in 5.0 mi Calm Calm - 0.00 in   Mostly Cloudy
2:35 AM 64.4 °F - - N/A% 30.14 in 5.0 mi Calm Calm - 0.00 in   Clear
2:55 AM 64.4 °F - - N/A% 30.13 in 6.0 mi Calm Calm - 0.00 in   Clear
3:15 AM 64.4 °F - - N/A% 30.13 in 5.0 mi Calm Calm - 0.00 in   Clear
3:35 AM 62.6 °F - - N/A% 30.13 in 4.0 mi Calm Calm - 0.00 in   Clear
3:55 AM 62.6 °F - - N/A% 30.13 in 5.0 mi Calm Calm - 0.00 in   Clear
4:15 AM 62.6 °F - - N/A% 30.12 in 3.0 mi Calm Calm - 0.00 in   Clear
4:35 AM 62.6 °F - - N/A% 30.12 in 4.0 mi Calm Calm - 0.00 in   Clear
4:55 AM 60.8 °F - - N/A% 30.13 in 2.0 mi North 3.5 mph - 0.00 in   Clear
5:15 AM 60.8 °F - - N/A% 30.13 in 3.0 mi NNE 4.6 mph - 0.00 in   Clear
5:35 AM 60.8 °F - - N/A% 30.13 in 4.0 mi NNE 3.5 mph - 0.00 in   Clear
5:55 AM 60.8 °F - - N/A% 30.14 in 3.0 mi NE 3.5 mph - 0.00 in   Clear
6:15 AM 60.8 °F - - N/A% 30.14 in 4.0 mi Calm Calm - 0.00 in   Clear
6:35 AM 60.8 °F - - N/A% 30.15 in 3.0 mi Calm Calm - 0.00 in   Clear
6:55 AM 60.8 °F - - N/A% 30.15 in 5.0 mi Calm Calm - 0.00 in   Clear
7:15 AM 60.8 °F - - N/A% 30.16 in 3.0 mi Calm Calm - 0.00 in   Clear
7:35 AM 60.8 °F - - N/A% 30.16 in 5.0 mi Calm Calm - 0.00 in   Clear
7:55 AM 62.6 °F - - N/A% 30.17 in 5.0 mi Calm Calm - 0.00 in   Clear
8:15 AM 64.4 °F - - N/A% 30.17 in 7.0 mi East 3.5 mph - 0.00 in   Clear
8:35 AM 66.2 °F - - N/A% 30.18 in 8.0 mi East 4.6 mph - 0.00 in   Clear
9:15 AM 73.4 °F - 73.4 °F 100% 30.18 in 7.0 mi East 6.9 mph - 0.00 in   Clear
9:35 AM 75.2 °F - 73.4 °F 94% 30.19 in 7.0 mi East 8.1 mph - 0.00 in   Partly Cloudy
9:55 AM 77.0 °F - 73.4 °F 89% 30.19 in 7.0 mi ENE 10.4 mph - 0.00 in   Partly Cloudy
10:15 AM 78.8 °F - 73.4 °F 83% 30.20 in 6.0 mi East 9.2 mph - 0.00 in   Scattered Clouds
10:35 AM 80.6 °F 84.6 °F 71.6 °F 74% 30.20 in 7.0 mi East 11.5 mph - 0.00 in   Mostly Cloudy
10:55 AM 80.6 °F 83.9 °F 69.8 °F 70% 30.21 in 7.0 mi ENE 11.5 mph - 0.00 in   Mostly Cloudy
11:15 AM 82.4 °F 86.3 °F 69.8 °F 66% 30.20 in 7.0 mi East 10.4 mph - 0.00 in   Scattered Clouds
11:35 AM 82.4 °F 84.6 °F 66.2 °F 58% 30.20 in 7.0 mi ESE 12.7 mph - 0.00 in   Scattered Clouds
11:55 AM 84.2 °F 85.6 °F 64.4 °F 51% 30.19 in 8.0 mi East 11.5 mph - 0.00 in   Scattered Clouds
12:15 PM 84.2 °F 85.6 °F 64.4 °F 51% 30.18 in 7.0 mi East 12.7 mph 18.4 mph 0.00 in   Partly Cloudy
12:35 PM 84.2 °F 85.0 °F 62.6 °F 48% 30.17 in 7.0 mi East 13.8 mph 19.6 mph 0.00 in   Partly Cloudy
12:55 PM 86.0 °F 86.1 °F 60.8 °F 43% 30.16 in 8.0 mi ENE 10.4 mph 16.1 mph 0.00 in   Clear
1:15 PM 87.8 °F 88.5 °F 62.6 °F 43% 30.15 in 8.0 mi East 9.2 mph - 0.00 in   Partly Cloudy
1:35 PM 84.2 °F 85.0 °F 62.6 °F 48% 30.14 in 7.0 mi ENE 9.2 mph - 0.00 in   Scattered Clouds
1:55 PM 86.0 °F 86.6 °F 62.6 °F 45% 30.14 in 8.0 mi NE 11.5 mph - 0.00 in   Scattered Clouds
2:15 PM 84.2 °F 84.4 °F 60.8 °F 45% 30.13 in 9.0 mi NE 11.5 mph - 0.00 in   Mostly Cloudy
2:35 PM 84.2 °F 84.4 °F 60.8 °F 45% 30.12 in 8.0 mi ENE 15.0 mph 19.6 mph 0.00 in   Scattered Clouds
2:55 PM 87.8 °F 87.6 °F 60.8 °F 40% 30.12 in 7.0 mi ENE 16.1 mph 21.9 mph 0.00 in   Partly Cloudy
3:15 PM 87.8 °F 87.6 °F 60.8 °F 40% 30.11 in 8.0 mi ENE 10.4 mph 16.1 mph 0.00 in   Partly Cloudy
3:35 PM 87.8 °F 87.6 °F 60.8 °F 40% 30.10 in 8.0 mi NE 17.3 mph 21.9 mph 0.00 in   Partly Cloudy
3:55 PM 87.8 °F 87.6 °F 60.8 °F 40% 30.10 in 10.0 mi ENE 13.8 mph - 0.00 in   Partly Cloudy
4:15 PM 84.2 °F 83.8 °F 59.0 °F 42% 30.09 in 8.0 mi ENE 12.7 mph - 0.00 in   Partly Cloudy
4:35 PM 82.4 °F 82.0 °F 57.2 °F 42% 30.09 in 9.0 mi ENE 15.0 mph - 0.00 in   Partly Cloudy
5:15 PM 86.0 °F 84.5 °F 55.4 °F 35% 30.08 in 8.0 mi NE 13.8 mph 19.6 mph 0.00 in   Clear
5:35 PM 84.2 °F 83.0 °F 55.4 °F 37% 30.08 in 8.0 mi ENE 13.8 mph - 0.00 in   Partly Cloudy
5:55 PM 84.2 °F 83.0 °F 55.4 °F 37% 30.08 in 8.0 mi ENE 11.5 mph - 0.00 in   Partly Cloudy
6:15 PM 84.2 °F 83.0 °F 55.4 °F 37% 30.08 in 8.0 mi ENE 16.1 mph - 0.00 in   Clear
6:35 PM 82.4 °F 81.7 °F 55.4 °F 39% 30.09 in 8.0 mi ENE 17.3 mph - 0.00 in   Clear
6:55 PM 80.6 °F 80.5 °F 55.4 °F 42% 30.09 in 9.0 mi ENE 12.7 mph - 0.00 in   Clear
7:15 PM 80.6 °F 80.8 °F 57.2 °F 45% 30.09 in 9.0 mi ENE 13.8 mph - 0.00 in   Clear
7:35 PM 78.8 °F - 57.2 °F 47% 30.10 in 8.0 mi NE 11.5 mph - 0.00 in   Clear
7:55 PM 75.2 °F - 57.2 °F 53% 30.10 in 9.0 mi ENE 8.1 mph - 0.00 in   Clear
8:15 PM 73.4 °F - 59.0 °F 61% 30.11 in 9.0 mi NE 8.1 mph - 0.00 in   Clear
8:35 PM 71.6 °F - 60.8 °F 69% 30.11 in 10.0 mi ENE 8.1 mph - 0.00 in   Clear
8:55 PM 71.6 °F - 62.6 °F 73% 30.12 in 10.0 mi ENE 6.9 mph - 0.00 in   Clear
9:15 PM 69.8 °F - 62.6 °F 78% 30.12 in 10.0 mi ENE 5.8 mph - 0.00 in   Clear
9:35 PM 68.0 °F - 64.4 °F 88% 30.13 in 10.0 mi ENE 4.6 mph - 0.00 in   Clear
9:55 PM 66.2 °F - 64.4 °F 94% 30.13 in 10.0 mi ENE 4.6 mph - 0.00 in   Clear
10:15 PM 66.2 °F - 64.4 °F 94% 30.13 in 10.0 mi ENE 4.6 mph - 0.00 in   Clear
10:35 PM 66.2 °F - 64.4 °F 94% 30.13 in 10.0 mi ENE 4.6 mph - 0.00 in   Clear
10:55 PM 64.4 °F - 64.4 °F 100% 30.13 in 10.0 mi Calm Calm - 0.00 in   Clear
11:15 PM 64.4 °F - 64.4 °F 100% 30.13 in 10.0 mi Calm Calm - 0.00 in   Scattered Clouds
11:35 PM 64.4 °F - 64.4 °F 100% 30.13 in 10.0 mi Calm Calm - 0.00 in   Scattered Clouds
11:55 PM 64.4 °F - 64.4 °F 100% 30.13 in 9.0 mi Calm Calm - 0.00 in   Partly Cloudy